Regional Weather Roundup
Issued by NWS

Home | Current Version | Previous Version | Graphics & Text | Print | Product List | Glossary Off
Versions: 1 2 3 4 5 6 7 8 9 10 11 12 13 14 15 16 17 18 19 20 21 22 23 24 25 26 27 28 29 30 31 32 33 34 35 36 37 38 39 40 41 42 43 44 45 46 47 48 49 50

000
ASUS43 KTOP 202008
RWRKS

WEATHER ROUNDUP FOR KANSAS
NATIONAL WEATHER SERVICE GOODLAND KS
200 PM CST FRI JAN 20 2017

NOTE:  "FAIR" INDICATES FEW OR NO CLOUDS BELOW 12,000 FEET WITH NO
SIGNIFICANT WEATHER AND/OR OBSTRUCTIONS TO VISIBILITY.

KSZ001>006-013>018-027>032-041>047-202100-
NORTHWEST KANSAS

CITY           SKY/WX    TMP DP  RH WIND       PRES   REMARKS
GOODLAND       LGT SNOW  34  31  88 CALM      29.39F FOG
HAYS           CLOUDY    46  39  76 SW12      29.40F
HILL CITY      CLOUDY    43  40  89 SW6       29.41S
RUSSELL        CLOUDY    47  42  83 SW10      29.39F
$$

KSZ061>065-074>080-084>089-202100-
SOUTHWEST KANSAS

CITY           SKY/WX    TMP DP  RH WIND       PRES   REMARKS
DODGE CITY     SUNNY     49  38  65 S7        29.37F
ELKHART          N/A     51  27  39 NW10        N/A
GARDEN CITY    PTSUNNY   48  38  68 SW12      29.37F
GREAT BEND     CLOUDY    45  43  93 SW6       29.41F FOG
LIBERAL        SUNNY     57  39  51 W17       29.35F
PRATT          CLOUDY    42  41  95 CALM      29.39F
$$

KSZ066>073-081>083-090>101-202100-
SOUTHEAST KANSAS

CITY           SKY/WX    TMP DP  RH WIND       PRES   REMARKS
CHANUTE        CLOUDY    54  45  71 S14       29.44F
COFFEYVILLE    SUNNY     63  42  46 SW18G24   29.43F
HUTCHINSON     CLOUDY    49  46  90 S8        29.40F
MEDICINE LODGE   N/A     46  42  86 SW9       29.41S
PARSONS        MOSUNNY   60  46  59 S10G22    29.44F
WICHITA INTL   CLOUDY    51  44  77 S8        29.40F
WICHITA JABRA  CLOUDY    51  44  77 S7        29.40F
WICHITA MCCONL CLOUDY    51  44  76 SW6       29.40F
WINFIELD       PTSUNNY   55  44  66 S9        29.42F
$$

KSZ007>012-019>026-033>040-048>060-102>105-202100-
NORTHEAST KANSAS

CITY           SKY/WX    TMP DP  RH WIND       PRES   REMARKS
CONCORDIA      CLOUDY    45  45 100 CALM      29.40F FOG
EMPORIA        CLOUDY    51  48  89 S9        29.42F
LAWRENCE       CLOUDY    52  50  93 SE8       29.44F FOG
MANHATTAN      CLOUDY    51  47  86 S8        29.42F
MARYSVILLE     CLOUDY    45  45 100 SE6       29.43F FOG
OLATHE IND     CLOUDY    52  48  86 S7        29.44F
OLATHE EXE     CLOUDY    52  48  86 SE7       29.44F
SALINA         CLOUDY    48  46  93 CALM      29.41F FOG
TOPEKA BILLARD CLOUDY    50  48  93 SE7       29.44S FOG
TOPEKA FORBES  CLOUDY    52  49  89 S6        29.43F
$$




USA.gov is the U.S. government's official web portal to all federal, state and local government web resources and services.